Погода в Гнилуше

Россия / Липецкая область     52°19′14″N   39°05′51″E
темп.,
°C
ветер,
м/с
пор.,
м/с
влажн.,
%
обл.,
%
осадки,
мм/ч
давл.,
гПа
погр.,
м
16 мая, вс
вс1600:00+15юз22810 0.0 101311
03:00+13ююз11865 0.0 101410
06:00+15ююв22830 0.0 101432
09:00+20ююв236613 0.0 1015413
12:00+23ю234728 0.0 10151654
15:00+24зюз1245100 0.0 10141639
18:00+23с236035 0.0 101383
21:00+17св357883 0.5 101373
17 мая, пн
пн1700:00+16всв4119021 6.6 1013228
03:00+15всв369381 6.6 1012104
06:00+15всв498770 0.0 1012177
09:00+20вюв596890 0.0 1012358
12:00+26вюв611483 0.0 10111191
15:00+26вюв7125026 0.0 10101436
18:00+23вюв7136237 0.0 1009520
21:00+20вюв6166739 0.0 1009409
18 мая, вт
вт1800:00+18вюв513615 0.0 1009299
03:00+15вюв4106830 0.0 1008186
06:00+15юв4107794 0.0 1009225
09:00+20юв586684 0.0 1009425
12:00+24юв694894 0.0 10081115
15:00+24ююв574661 0.0 10071448
18:00+22ююв376699 0.0 1007245
21:00+16ююз258075 0.0 1008129
19 мая, ср
ср1900:00+16ююв1183100 0.2 100711
03:00+16юв2283100 0.2 100622
06:00+15ю2392100 0.8 100688
09:00+18юв4682100 0.8 1006560
12:00+21ююв6865100 1.4 10051622
15:00+19ю81073100 2.9 10061339
18:00+15ююз5882100 0.5 1007823
21:00+12ю499132 0.5 1007255
20 мая, чт
чт2000:00+10ю5119350 0.1 1008432
03:00+11ю61187100 0.3 1008804
06:00+10ююз71191100 0.1 1008845
09:00+11юз71189100 0.2 1010962
12:00+14юз8127297 0.2 10121376
15:00+16юз7117485 0.5 10131155
18:00+17юз6972100 0.1 1014867
21:00+13юз338271 0.2 101629